Location: Sternwarte ZA, Rosenfeld-Brittheim
(48.2889°N, 8.6789°E)
Time: 04:21:11
(UTC+02:00)

ISS - Pass Details

Date: 24 September 2020
Orbit: 419 x 420 km, 51.6° (Epoch: 21 September)

Event Time Altitude Azimuth Distance (km) Brightness Sun altitude
Rises 20:06:08 0° 257° (WSW) 2,363 1.5 -8.8°
Reaches altitude 10° 20:08:14 10° 261° (W) 1,501 0.4 -9.1°
Maximum altitude 20:11:35 65° 343° (NNW) 467 -3.4 -9.7°
Enters shadow 20:14:47 11° 66° (ENE) 1,437 -1.5 -10.2°
